Time,TemperatureF,DewpointF,PressureIn,WindDirection,WindDirectionDegrees,WindSpeedMPH,WindSpeedGustMPH,Humidity,HourlyPrecipIn,Conditions,Clouds,dailyrainin,SoftwareType,DateUTC
2013-06-11 00:01:00,79.2,71.7,29.89,NE,45,0.0,0.0,78,0.00,CLR,,0.00,WeatherDisplay:10.37,2013-06-11 05:01:00,
2013-06-11 00:06:00,79.0,71.6,29.90,NE,45,0.0,0.0,78,0.00,CLR,,0.00,WeatherDisplay:10.37,2013-06-11 05:06:00,
2013-06-11 00:11:00,78.9,71.8,29.90,NE,45,0.0,0.0,79,0.00,CLR,,0.00,WeatherDisplay:10.37,2013-06-11 05:11:00,
2013-06-11 00:16:00,78.8,71.7,29.90,NE,45,0.0,0.0,79,0.00,CLR,,0.00,WeatherDisplay:10.37,2013-06-11 05:16:00,
2013-06-11 00:21:00,78.7,71.6,29.90,NE,45,0.0,0.0,79,0.00,CLR,,0.00,WeatherDisplay:10.37,2013-06-11 05:21:00,
2013-06-11 00:26:00,78.6,71.9,29.90,NE,45,0.0,0.0,80,0.00,CLR,,0.00,WeatherDisplay:10.37,2013-06-11 05:26:00,
2013-06-11 00:31:00,78.5,71.8,29.90,NE,45,0.0,0.0,80,0.00,CLR,,0.00,WeatherDisplay:10.37,2013-06-11 05:31:00,
2013-06-11 00:36:00,78.4,71.7,29.90,NE,45,0.0,0.0,80,0.00,CLR,,0.00,WeatherDisplay:10.37,2013-06-11 05:36:00,
2013-06-11 00:41:00,78.3,72.0,29.90,NE,45,0.0,0.0,81,0.00,CLR,,0.00,WeatherDisplay:10.37,2013-06-11 05:41:00,
2013-06-11 00:46:00,78.2,71.9,29.90,NE,45,0.0,0.0,81,0.00,CLR,,0.00,WeatherDisplay:10.37,2013-06-11 05:46:00,
2013-06-11 00:51:00,78.2,71.9,29.90,NE,45,0.0,0.0,81,0.00,CLR,,0.00,WeatherDisplay:10.37,2013-06-11 05:51:00,
2013-06-11 00:56:00,78.1,71.8,29.90,NE,45,0.0,0.0,81,0.00,CLR,,0.00,WeatherDisplay:10.37,2013-06-11 05:56:00,
2013-06-11 01:01:00,78.0,72.1,29.90,NE,45,0.0,0.0,82,0.00,CLR,,0.00,WeatherDisplay:10.37,2013-06-11 06:01:00,
2013-06-11 01:06:00,77.8,71.9,29.90,NE,45,0.0,0.0,82,0.00,CLR,,0.00,WeatherDisplay:10.37,2013-06-11 06:06:00,
2013-06-11 01:11:00,77.7,71.8,29.90,NE,45,0.0,0.0,82,0.00,CLR,,0.00,WeatherDisplay:10.37,2013-06-11 06:11:00,
2013-06-11 01:16:00,77.6,72.0,29.90,NE,45,0.0,0.0,83,0.00,CLR,,0.00,WeatherDisplay:10.37,2013-06-11 06:16:00,
2013-06-11 01:22:00,77.5,71.9,29.91,NE,45,0.0,0.0,83,0.00,CLR,,0.00,WeatherDisplay:10.37,2013-06-11 06:22:00,
2013-06-11 01:27:00,77.4,72.2,29.91,NE,45,0.0,0.0,84,0.00,CLR,,0.00,WeatherDisplay:10.37,2013-06-11 06:27:00,
2013-06-11 01:32:00,77.4,72.2,29.90,NE,45,0.0,0.0,84,0.00,CLR,,0.00,WeatherDisplay:10.37,2013-06-11 06:32:00,
2013-06-11 01:37:00,77.3,72.1,29.90,NE,45,0.0,0.0,84,0.00,CLR,,0.00,WeatherDisplay:10.37,2013-06-11 06:37:00,
2013-06-11 01:42:00,77.2,72.0,29.90,NE,45,0.0,0.0,84,0.00,CLR,,0.00,WeatherDisplay:10.37,2013-06-11 06:42:00,
2013-06-11 01:47:00,77.1,71.9,29.90,NE,45,0.0,0.0,84,0.00,CLR,,0.00,WeatherDisplay:10.37,2013-06-11 06:47:00,
2013-06-11 01:52:00,77.1,71.9,29.90,NE,45,0.0,0.0,84,0.00,CLR,,0.00,WeatherDisplay:10.37,2013-06-11 06:52:00,
2013-06-11 01:57:00,76.9,72.0,29.90,NE,45,0.0,0.0,85,0.00,CLR,,0.00,WeatherDisplay:10.37,2013-06-11 06:57:00,
2013-06-11 02:02:00,76.8,71.9,29.90,NE,45,0.0,0.0,85,0.00,CLR,,0.00,WeatherDisplay:10.37,2013-06-11 07:02:00,
2013-06-11 02:07:00,76.7,71.8,29.90,NE,45,0.0,0.0,85,0.00,CLR,,0.00,WeatherDisplay:10.37,2013-06-11 07:07:00,
2013-06-11 02:12:00,76.5,71.7,29.90,NE,45,0.0,0.0,85,0.00,CLR,,0.00,WeatherDisplay:10.37,2013-06-11 07:12:00,
2013-06-11 02:17:00,76.4,71.9,29.90,NE,45,0.0,0.0,86,0.00,CLR,,0.00,WeatherDisplay:10.37,2013-06-11 07:17:00,
2013-06-11 02:22:00,76.3,71.8,29.90,NE,45,0.0,0.0,86,0.00,CLR,,0.00,WeatherDisplay:10.37,2013-06-11 07:22:00,
2013-06-11 02:27:00,76.1,71.6,29.90,NE,45,0.0,0.0,86,0.00,CLR,,0.00,WeatherDisplay:10.37,2013-06-11 07:27:00,
2013-06-11 02:32:00,76.0,71.5,29.90,NE,45,0.0,0.0,86,0.00,CLR,,0.00,WeatherDisplay:10.37,2013-06-11 07:32:00,
2013-06-11 02:37:00,75.9,71.4,29.90,NE,45,0.0,0.0,86,0.00,CLR,,0.00,WeatherDisplay:10.37,2013-06-11 07:37:00,
2013-06-11 02:42:00,75.8,71.3,29.90,NE,45,0.0,0.0,86,0.00,CLR,,0.00,WeatherDisplay:10.37,2013-06-11 07:42:00,
2013-06-11 02:47:00,75.8,71.7,29.90,NE,45,0.0,0.0,87,0.00,CLR,,0.00,WeatherDisplay:10.37,2013-06-11 07:47:00,
2013-06-11 02:52:00,75.7,71.6,29.90,NE,45,0.0,0.0,87,0.00,CLR,,0.00,WeatherDisplay:10.37,2013-06-11 07:52:00,
2013-06-11 02:57:00,75.6,71.5,29.91,NE,45,0.0,0.0,87,0.00,CLR,,0.00,WeatherDisplay:10.37,2013-06-11 07:57:00,
2013-06-11 03:02:00,75.6,71.8,29.91,NE,45,0.0,0.0,88,0.00,CLR,,0.00,WeatherDisplay:10.37,2013-06-11 08:02:00,
2013-06-11 03:07:00,75.5,71.7,29.90,NE,45,0.0,0.0,88,0.00,CLR,,0.00,WeatherDisplay:10.37,2013-06-11 08:07:00,
2013-06-11 03:12:00,75.5,72.0,29.90,NE,45,0.0,0.0,89,0.00,CLR,,0.00,WeatherDisplay:10.37,2013-06-11 08:12:00,
2013-06-11 03:17:00,75.4,71.9,29.90,NE,45,0.0,0.0,89,0.00,CLR,,0.00,WeatherDisplay:10.37,2013-06-11 08:17:00,
2013-06-11 03:22:00,75.4,71.9,29.90,NE,45,0.0,0.0,89,0.00,CLR,,0.00,WeatherDisplay:10.37,2013-06-11 08:22:00,
2013-06-11 03:27:00,75.4,71.9,29.90,NE,45,0.0,0.0,89,0.00,CLR,,0.00,WeatherDisplay:10.37,2013-06-11 08:27:00,
2013-06-11 03:32:00,75.4,71.9,29.91,NE,45,0.0,0.0,89,0.00,CLR,,0.00,WeatherDisplay:10.37,2013-06-11 08:32:00,
2013-06-11 03:37:00,75.4,71.9,29.91,NE,45,0.0,0.0,89,0.00,CLR,,0.00,WeatherDisplay:10.37,2013-06-11 08:37:00,
2013-06-11 03:42:00,75.4,72.3,29.90,NE,45,0.0,0.0,90,0.00,CLR,,0.00,WeatherDisplay:10.37,2013-06-11 08:42:00,
2013-06-11 03:47:00,75.4,72.3,29.90,NE,45,0.0,0.0,90,0.00,CLR,,0.00,WeatherDisplay:10.37,2013-06-11 08:47:00,
2013-06-11 03:52:00,75.5,72.4,29.90,NE,45,0.0,0.0,90,0.00,CLR,,0.00,WeatherDisplay:10.37,2013-06-11 08:52:00,
2013-06-11 03:57:00,75.5,72.4,29.90,NE,45,0.0,0.0,90,0.00,CLR,,0.00,WeatherDisplay:10.37,2013-06-11 08:57:00,
2013-06-11 04:02:00,75.5,72.4,29.90,NE,45,0.0,0.0,90,0.00,CLR,,0.00,WeatherDisplay:10.37,2013-06-11 09:02:00,
2013-06-11 04:07:00,75.5,72.4,29.90,NE,45,0.0,0.0,90,0.00,CLR,,0.00,WeatherDisplay:10.37,2013-06-11 09:07:00,
2013-06-11 04:12:00,75.5,72.4,29.90,NE,45,0.0,0.0,90,0.00,CLR,,0.00,WeatherDisplay:10.37,2013-06-11 09:12:00,
2013-06-11 04:17:00,75.5,72.4,29.90,NE,45,0.0,0.0,90,0.00,CLR,,0.00,WeatherDisplay:10.37,2013-06-11 09:17:00,
2013-06-11 04:22:00,75.5,72.4,29.90,NE,45,0.0,0.0,90,0.00,CLR,,0.00,WeatherDisplay:10.37,2013-06-11 09:22:00,
2013-06-11 04:27:00,75.5,72.4,29.90,NE,45,0.0,0.0,90,0.00,CLR,,0.00,WeatherDisplay:10.37,2013-06-11 09:27:00,
2013-06-11 04:32:00,75.5,72.4,29.90,NE,45,0.0,0.0,90,0.00,CLR,,0.00,WeatherDisplay:10.37,2013-06-11 09:32:00,
2013-06-11 04:37:00,75.4,72.3,29.90,NE,45,0.0,0.0,90,0.00,CLR,,0.00,WeatherDisplay:10.37,2013-06-11 09:37:00,
2013-06-11 04:42:00,75.4,72.3,29.90,NE,45,0.0,0.0,90,0.00,CLR,,0.00,WeatherDisplay:10.37,2013-06-11 09:42:00,
2013-06-11 04:47:00,75.4,72.3,29.90,NE,45,0.0,0.0,90,0.00,CLR,,0.00,WeatherDisplay:10.37,2013-06-11 09:47:00,
2013-06-11 04:52:00,75.3,72.2,29.91,NE,45,0.0,0.0,90,0.00,CLR,,0.00,WeatherDisplay:10.37,2013-06-11 09:52:00,
2013-06-11 04:57:00,75.3,72.2,29.91,NE,45,0.0,0.0,90,0.00,CLR,,0.00,WeatherDisplay:10.37,2013-06-11 09:57:00,
2013-06-11 05:02:00,75.2,72.1,29.91,NE,45,0.0,0.0,90,0.00,CLR,,0.00,WeatherDisplay:10.37,2013-06-11 10:02:00,
2013-06-11 05:07:00,75.1,72.3,29.91,NE,45,0.0,0.0,91,0.00,CLR,,0.00,WeatherDisplay:10.37,2013-06-11 10:07:00,
2013-06-11 05:12:00,75.1,72.3,29.91,NE,45,0.0,0.0,91,0.00,CLR,,0.00,WeatherDisplay:10.37,2013-06-11 10:12:00,
2013-06-11 05:17:00,75.0,72.2,29.91,NE,45,0.0,0.0,91,0.00,CLR,,0.00,WeatherDisplay:10.37,2013-06-11 10:17:00,
2013-06-11 05:22:00,74.9,72.1,29.91,NE,45,0.0,0.0,91,0.00,CLR,,0.00,WeatherDisplay:10.37,2013-06-11 10:22:00,
2013-06-11 05:27:00,74.8,72.0,29.91,NE,45,0.0,0.0,91,0.00,CLR,,0.00,WeatherDisplay:10.37,2013-06-11 10:27:00,
2013-06-11 05:32:00,74.8,72.0,29.91,NE,45,0.0,0.0,91,0.00,CLR,,0.00,WeatherDisplay:10.37,2013-06-11 10:32:00,
2013-06-11 05:37:00,74.7,71.9,29.91,NE,45,0.0,0.0,91,0.00,CLR,,0.00,WeatherDisplay:10.37,2013-06-11 10:37:00,
2013-06-11 05:42:00,74.6,71.8,29.91,NE,45,0.0,0.0,91,0.00,CLR,,0.00,WeatherDisplay:10.37,2013-06-11 10:42:00,
2013-06-11 05:47:00,74.6,71.8,29.91,NE,45,0.0,0.0,91,0.00,CLR,,0.00,WeatherDisplay:10.37,2013-06-11 10:47:00,
2013-06-11 05:52:00,74.4,71.6,29.91,NE,45,0.0,0.0,91,0.00,CLR,,0.00,WeatherDisplay:10.37,2013-06-11 10:52:00,
2013-06-11 05:57:00,74.4,71.6,29.91,NE,45,0.0,0.0,91,0.00,CLR,,0.00,WeatherDisplay:10.37,2013-06-11 10:57:00,
2013-06-11 06:02:00,74.3,71.5,29.92,NE,45,0.0,0.0,91,0.00,CLR,,0.00,WeatherDisplay:10.37,2013-06-11 11:02:00,
2013-06-11 06:07:00,74.2,71.7,29.92,NE,45,0.0,0.0,92,0.00,CLR,,0.00,WeatherDisplay:10.37,2013-06-11 11:07:00,
2013-06-11 06:12:00,74.1,71.6,29.92,NE,45,0.0,0.0,92,0.00,CLR,,0.00,WeatherDisplay:10.37,2013-06-11 11:12:00,
2013-06-11 06:17:00,74.0,71.5,29.92,NE,45,0.0,0.0,92,0.00,CLR,,0.00,WeatherDisplay:10.37,2013-06-11 11:17:00,
2013-06-11 06:22:00,74.0,71.5,29.92,NE,45,0.0,0.0,92,0.00,CLR,,0.00,WeatherDisplay:10.37,2013-06-11 11:22:00,
2013-06-11 06:27:00,73.9,71.4,29.92,NE,45,0.0,0.0,92,0.00,CLR,,0.00,WeatherDisplay:10.37,2013-06-11 11:27:00,
2013-06-11 06:32:00,73.8,71.3,29.92,NE,45,0.0,0.0,92,0.00,CLR,,0.00,WeatherDisplay:10.37,2013-06-11 11:32:00,
2013-06-11 06:37:00,73.7,71.2,29.92,NE,45,0.0,0.0,92,0.00,CLR,,0.00,WeatherDisplay:10.37,2013-06-11 11:37:00,
2013-06-11 06:42:00,73.6,71.1,29.92,NE,45,0.0,0.0,92,0.00,CLR,,0.00,WeatherDisplay:10.37,2013-06-11 11:42:00,
2013-06-11 06:47:00,73.5,71.0,29.92,NE,45,0.0,0.0,92,0.00,CLR,,0.00,WeatherDisplay:10.37,2013-06-11 11:47:00,
2013-06-11 06:52:00,73.5,71.0,29.92,NE,45,0.0,0.0,92,0.00,CLR,,0.00,WeatherDisplay:10.37,2013-06-11 11:52:00,
2013-06-11 06:57:00,73.4,70.9,29.92,NE,45,0.0,0.0,92,0.00,CLR,,0.00,WeatherDisplay:10.37,2013-06-11 11:57:00,
2013-06-11 07:02:00,73.3,70.8,29.92,NE,45,0.0,0.0,92,0.00,CLR,,0.00,WeatherDisplay:10.37,2013-06-11 12:02:00,
2013-06-11 07:07:00,73.3,70.8,29.92,NE,45,0.0,0.0,92,0.00,CLR,,0.00,WeatherDisplay:10.37,2013-06-11 12:07:00,
2013-06-11 07:12:00,73.3,70.8,29.92,NE,45,0.0,0.0,92,0.00,CLR,,0.00,WeatherDisplay:10.37,2013-06-11 12:12:00,
2013-06-11 07:17:00,73.3,70.8,29.93,NE,45,0.0,0.0,92,0.00,CLR,,0.00,WeatherDisplay:10.37,2013-06-11 12:17:00,
2013-06-11 07:22:00,73.5,71.4,29.93,NE,45,0.0,0.0,93,0.00,CLR,,0.00,WeatherDisplay:10.37,2013-06-11 12:22:00,
2013-06-11 07:27:00,73.7,71.5,29.93,NE,45,0.0,0.0,93,0.00,CLR,,0.00,WeatherDisplay:10.37,2013-06-11 12:27:00,
2013-06-11 07:32:00,73.8,71.6,29.93,NE,45,0.0,0.0,93,0.00,CLR,,0.00,WeatherDisplay:10.37,2013-06-11 12:32:00,
2013-06-11 07:37:00,74.0,71.8,29.93,NE,45,0.0,0.0,93,0.00,CLR,,0.00,WeatherDisplay:10.37,2013-06-11 12:37:00,
2013-06-11 07:42:00,74.1,71.9,29.93,NE,45,0.0,0.0,93,0.00,CLR,,0.00,WeatherDisplay:10.37,2013-06-11 12:42:00,
2013-06-11 07:47:00,74.3,72.5,29.93,NE,45,0.0,0.0,94,0.00,CLR,,0.00,WeatherDisplay:10.37,2013-06-11 12:47:00,
2013-06-11 07:52:00,74.5,72.7,29.93,NE,46,0.0,0.0,94,0.00,CLR,,0.00,WeatherDisplay:10.37,2013-06-11 12:52:00,
2013-06-11 07:57:00,74.7,72.9,29.93,NE,46,0.0,0.0,94,0.00,CLR,,0.00,WeatherDisplay:10.37,2013-06-11 12:57:00,
2013-06-11 08:02:00,74.8,72.6,29.93,NE,44,0.0,0.0,93,0.00,CLR,,0.00,WeatherDisplay:10.37,2013-06-11 13:02:00,
2013-06-11 08:07:00,74.8,72.6,29.94,WNW,301,0.0,0.0,93,0.00,CLR,,0.00,WeatherDisplay:10.37,2013-06-11 13:07:00,
2013-06-11 08:12:00,74.9,72.7,29.94,WNW,301,0.0,0.0,93,0.00,CLR,,0.00,WeatherDisplay:10.37,2013-06-11 13:12:00,
2013-06-11 08:17:00,75.1,72.9,29.94,WNW,301,0.0,0.0,93,0.00,CLR,,0.00,WeatherDisplay:10.37,2013-06-11 13:17:00,
2013-06-11 08:22:00,75.3,73.1,29.94,SW,229,0.0,0.0,93,0.00,CLR,,0.00,WeatherDisplay:10.37,2013-06-11 13:22:00,
2013-06-11 08:27:00,75.5,73.0,29.94,SW,229,0.0,0.0,92,0.00,CLR,,0.00,WeatherDisplay:10.37,2013-06-11 13:27:00,
2013-06-11 08:32:00,75.7,73.2,29.94,SW,229,0.0,0.0,92,0.00,CLR,,0.00,WeatherDisplay:10.37,2013-06-11 13:32:00,
2013-06-11 08:37:00,76.0,73.2,29.95,SSW,211,0.0,0.0,91,0.00,CLR,,0.00,WeatherDisplay:10.37,2013-06-11 13:37:00,
2013-06-11 08:42:00,76.2,73.1,29.95,SSW,211,0.0,0.0,90,0.00,CLR,,0.00,WeatherDisplay:10.37,2013-06-11 13:42:00,
2013-06-11 08:47:00,76.7,73.5,29.95,SW,227,0.0,0.0,90,0.00,CLR,,0.00,WeatherDisplay:10.37,2013-06-11 13:47:00,
2013-06-11 08:52:00,77.1,73.6,29.95,SW,229,0.0,0.0,89,0.00,CLR,,0.00,WeatherDisplay:10.37,2013-06-11 13:52:00,
2013-06-11 08:57:00,77.7,73.5,29.95,SW,232,0.0,0.0,87,0.00,CLR,,0.00,WeatherDisplay:10.37,2013-06-11 13:57:00,
2013-06-11 09:02:00,78.3,73.4,29.95,SSW,211,0.0,0.0,85,0.00,CLR,,0.00,WeatherDisplay:10.37,2013-06-11 14:02:00,
2013-06-11 09:07:00,78.8,73.6,29.95,SW,219,0.0,0.0,84,0.00,CLR,,0.00,WeatherDisplay:10.37,2013-06-11 14:07:00,
2013-06-11 09:12:00,79.6,73.6,29.95,WSW,253,0.0,0.0,82,0.00,CLR,,0.00,WeatherDisplay:10.37,2013-06-11 14:12:00,
2013-06-11 09:17:00,80.3,73.6,29.95,NE,48,0.0,0.0,80,0.00,CLR,,0.00,WeatherDisplay:10.37,2013-06-11 14:17:00,
2013-06-11 09:22:00,80.9,74.1,29.95,NE,48,0.0,0.0,80,0.00,CLR,,0.00,WeatherDisplay:10.37,2013-06-11 14:22:00,
2013-06-11 09:27:00,81.4,73.9,29.95,NE,48,0.0,0.0,78,0.00,CLR,,0.00,WeatherDisplay:10.37,2013-06-11 14:27:00,
2013-06-11 09:32:00,82.0,74.1,29.95,NE,48,0.0,0.0,77,0.00,CLR,,0.00,WeatherDisplay:10.37,2013-06-11 14:32:00,
2013-06-11 09:37:00,82.5,73.4,29.95,SE,140,0.3,1.2,74,0.00,CLR,,0.00,WeatherDisplay:10.37,2013-06-11 14:37:00,
2013-06-11 09:42:00,82.6,73.5,29.95,SSW,208,0.0,0.0,74,0.00,CLR,,0.00,WeatherDisplay:10.37,2013-06-11 14:42:00,
2013-06-11 09:47:00,82.5,73.0,29.95,SW,233,0.0,0.0,73,0.00,CLR,,0.00,WeatherDisplay:10.37,2013-06-11 14:47:00,
2013-06-11 09:52:00,82.4,73.3,29.95,SW,233,0.0,0.0,74,0.00,CLR,,0.00,WeatherDisplay:10.37,2013-06-11 14:52:00,
2013-06-11 09:57:00,82.3,73.2,29.95,SW,233,0.0,0.0,74,0.00,CLR,,0.00,WeatherDisplay:10.37,2013-06-11 14:57:00,
2013-06-11 10:02:00,82.4,72.9,29.94,SW,236,0.0,0.0,73,0.00,CLR,,0.00,WeatherDisplay:10.37,2013-06-11 15:02:00,
2013-06-11 10:07:00,82.6,72.7,29.95,North,5,0.1,1.2,72,0.00,CLR,,0.00,WeatherDisplay:10.37,2013-06-11 15:07:00,
2013-06-11 10:12:00,82.9,72.5,29.95,NNW,344,0.0,0.0,71,0.00,CLR,,0.00,WeatherDisplay:10.37,2013-06-11 15:12:00,
2013-06-11 10:17:00,83.3,72.1,29.95,SW,217,0.0,0.0,69,0.00,CLR,,0.00,WeatherDisplay:10.37,2013-06-11 15:17:00,
2013-06-11 10:22:00,83.2,72.0,29.95,SW,221,0.0,0.0,69,0.00,CLR,,0.00,WeatherDisplay:10.37,2013-06-11 15:22:00,
2013-06-11 10:27:00,83.3,72.5,29.95,SW,232,0.0,0.0,70,0.00,CLR,,0.00,WeatherDisplay:10.37,2013-06-11 15:27:00,
2013-06-11 10:32:00,83.4,72.6,29.95,SSW,213,0.0,0.0,70,0.00,CLR,,0.00,WeatherDisplay:10.37,2013-06-11 15:32:00,
2013-06-11 10:37:00,84.2,73.3,29.95,SSW,211,0.0,0.0,70,0.00,CLR,,0.00,WeatherDisplay:10.37,2013-06-11 15:37:00,
2013-06-11 10:42:00,85.3,73.5,29.95,NE,52,0.1,3.5,68,0.00,CLR,,0.00,WeatherDisplay:10.37,2013-06-11 15:42:00,
2013-06-11 10:47:00,86.1,73.9,29.95,NNE,30,0.0,0.0,67,0.00,CLR,,0.00,WeatherDisplay:10.37,2013-06-11 15:47:00,
2013-06-11 10:52:00,86.8,74.1,29.95,NE,55,0.0,0.0,66,0.00,CLR,,0.00,WeatherDisplay:10.37,2013-06-11 15:52:00,
2013-06-11 10:57:00,87.1,74.4,29.95,ESE,117,0.3,1.2,66,0.00,CLR,,0.00,WeatherDisplay:10.37,2013-06-11 15:57:00,
2013-06-11 11:02:00,88.0,74.3,29.95,ENE,76,0.2,2.0,64,0.00,CLR,,0.00,WeatherDisplay:10.37,2013-06-11 16:02:00,
2013-06-11 11:07:00,88.9,74.2,29.96,SW,219,0.5,2.3,62,0.00,CLR,,0.00,WeatherDisplay:10.37,2013-06-11 16:07:00,
2013-06-11 11:12:00,89.7,74.5,29.95,WNW,297,0.0,1.2,61,0.00,CLR,,0.00,WeatherDisplay:10.37,2013-06-11 16:12:00,
2013-06-11 11:17:00,89.8,73.6,29.95,SW,223,0.4,1.2,59,0.00,CLR,,0.00,WeatherDisplay:10.37,2013-06-11 16:17:00,
2013-06-11 11:22:00,89.8,74.1,29.96,SW,226,0.0,3.5,60,0.00,CLR,,0.00,WeatherDisplay:10.37,2013-06-11 16:22:00,
2013-06-11 11:27:00,89.5,73.3,29.96,SW,225,0.7,3.5,59,0.00,CLR,,0.00,WeatherDisplay:10.37,2013-06-11 16:27:00,
2013-06-11 11:32:00,88.9,73.2,29.96,SW,221,0.4,3.5,60,0.00,CLR,,0.00,WeatherDisplay:10.37,2013-06-11 16:32:00,
2013-06-11 11:37:00,88.5,73.3,29.96,SW,222,0.0,0.0,61,0.00,CLR,,0.00,WeatherDisplay:10.37,2013-06-11 16:37:00,
2013-06-11 11:42:00,88.4,72.7,29.96,WSW,238,0.1,1.2,60,0.00,CLR,,0.00,WeatherDisplay:10.37,2013-06-11 16:42:00,
2013-06-11 11:47:00,87.9,72.8,29.96,SW,231,0.8,1.2,61,0.00,CLR,,0.00,WeatherDisplay:10.37,2013-06-11 16:47:00,
2013-06-11 11:52:00,87.5,72.4,29.96,WSW,243,0.0,0.0,61,0.00,CLR,,0.00,WeatherDisplay:10.37,2013-06-11 16:52:00,
2013-06-11 11:57:00,87.8,73.6,29.96,West,275,0.0,0.0,63,0.00,CLR,,0.00,WeatherDisplay:10.37,2013-06-11 16:57:00,
2013-06-11 12:02:00,88.6,73.9,29.96,North,355,2.5,3.5,62,0.00,CLR,,0.00,WeatherDisplay:10.37,2013-06-11 17:02:00,
2013-06-11 12:07:00,89.5,72.8,29.96,NW,323,0.1,1.0,58,0.00,CLR,,0.00,WeatherDisplay:10.37,2013-06-11 17:07:00,
2013-06-11 12:12:00,89.9,73.1,29.96,ENE,76,0.0,0.0,58,0.00,CLR,,0.00,WeatherDisplay:10.37,2013-06-11 17:12:00,
2013-06-11 12:17:00,90.2,73.4,29.96,ENE,57,0.0,1.2,58,0.00,CLR,,0.00,WeatherDisplay:10.37,2013-06-11 17:17:00,
2013-06-11 12:22:00,90.1,72.8,29.96,NE,48,0.0,1.2,57,0.00,CLR,,0.00,WeatherDisplay:10.37,2013-06-11 17:22:00,
2013-06-11 12:27:00,90.3,73.0,29.96,NE,53,0.0,2.0,57,0.00,CLR,,0.00,WeatherDisplay:10.37,2013-06-11 17:27:00,
2013-06-11 12:32:00,90.6,72.8,29.95,NE,55,0.0,1.0,56,0.00,CLR,,0.00,WeatherDisplay:10.37,2013-06-11 17:32:00,
2013-06-11 12:37:00,91.3,73.4,29.95,NE,55,0.0,0.0,56,0.00,CLR,,0.00,WeatherDisplay:10.37,2013-06-11 17:37:00,
2013-06-11 12:42:00,91.9,73.4,29.95,West,277,0.0,0.0,55,0.00,CLR,,0.00,WeatherDisplay:10.37,2013-06-11 17:42:00,
2013-06-11 12:47:00,91.5,72.0,29.95,SSW,197,0.0,1.2,53,0.00,CLR,,0.00,WeatherDisplay:10.37,2013-06-11 17:47:00,
2013-06-11 12:52:00,90.9,73.0,29.95,SSW,195,0.1,0.0,56,0.00,CLR,,0.00,WeatherDisplay:10.37,2013-06-11 17:52:00,
2013-06-11 12:57:00,90.1,72.3,29.95,NE,40,0.0,0.0,56,0.00,CLR,,0.00,WeatherDisplay:10.37,2013-06-11 17:57:00,
2013-06-11 13:02:00,90.1,73.3,29.95,WNW,288,0.2,1.2,58,0.00,CLR,,0.00,WeatherDisplay:10.37,2013-06-11 18:02:00,
2013-06-11 13:07:00,90.0,73.7,29.94,ENE,63,0.0,0.0,59,0.00,CLR,,0.00,WeatherDisplay:10.37,2013-06-11 18:07:00,
2013-06-11 13:12:00,90.4,73.1,29.94,ENE,63,0.0,1.2,57,0.00,CLR,,0.00,WeatherDisplay:10.37,2013-06-11 18:12:00,
2013-06-11 13:17:00,90.5,73.2,29.94,SE,128,0.0,0.0,57,0.00,CLR,,0.00,WeatherDisplay:10.37,2013-06-11 18:17:00,
2013-06-11 13:22:00,90.9,73.0,29.94,SW,233,0.0,0.0,56,0.00,CLR,,0.00,WeatherDisplay:10.37,2013-06-11 18:22:00,
2013-06-11 13:27:00,91.3,73.4,29.94,SW,217,0.0,1.2,56,0.00,CLR,,0.00,WeatherDisplay:10.37,2013-06-11 18:27:00,
2013-06-11 13:32:00,92.4,73.3,29.93,WSW,257,0.0,0.0,54,0.00,CLR,,0.00,WeatherDisplay:10.37,2013-06-11 18:32:00,
2013-06-11 13:37:00,91.7,72.1,29.93,East,99,1.0,2.3,53,0.00,CLR,,0.00,WeatherDisplay:10.37,2013-06-11 18:37:00,
2013-06-11 13:42:00,92.2,73.7,29.93,SSW,211,0.2,2.0,55,0.00,CLR,,0.00,WeatherDisplay:10.37,2013-06-11 18:42:00,
2013-06-11 13:47:00,92.2,71.5,29.93,SW,221,0.0,3.5,51,0.00,CLR,,0.00,WeatherDisplay:10.37,2013-06-11 18:47:00,
2013-06-11 13:52:00,92.7,71.9,29.93,West,271,1.0,1.2,51,0.00,CLR,,0.00,WeatherDisplay:10.37,2013-06-11 18:52:00,
2013-06-11 13:57:00,93.5,72.1,29.93,NW,319,0.1,0.0,50,0.00,CLR,,0.00,WeatherDisplay:10.37,2013-06-11 18:57:00,
2013-06-11 14:02:00,94.4,72.3,29.93,SSE,161,0.2,2.3,49,0.00,CLR,,0.00,WeatherDisplay:10.37,2013-06-11 19:02:00,
2013-06-11 14:07:00,94.6,71.2,29.92,SW,220,0.6,3.5,47,0.00,CLR,,0.00,WeatherDisplay:10.37,2013-06-11 19:07:00,
2013-06-11 14:12:00,94.6,71.9,29.92,South,179,2.1,4.0,48,0.00,CLR,,0.00,WeatherDisplay:10.37,2013-06-11 19:12:00,
2013-06-11 14:17:00,94.9,72.1,29.92,North,355,0.0,2.0,48,0.00,CLR,,0.00,WeatherDisplay:10.37,2013-06-11 19:17:00,
2013-06-11 14:22:00,95.0,72.8,29.92,SSW,200,0.0,0.0,49,0.00,CLR,,0.00,WeatherDisplay:10.37,2013-06-11 19:22:00,
2013-06-11 14:27:00,95.5,72.1,29.92,NNW,337,0.1,2.3,47,0.00,CLR,,0.00,WeatherDisplay:10.37,2013-06-11 19:27:00,
2013-06-11 14:32:00,95.7,72.2,29.91,West,281,0.0,2.3,47,0.00,CLR,,0.00,WeatherDisplay:10.37,2013-06-11 19:32:00,
2013-06-11 14:37:00,95.7,72.2,29.91,ESE,106,0.5,1.2,47,0.00,CLR,,0.00,WeatherDisplay:10.37,2013-06-11 19:37:00,
2013-06-11 14:42:00,95.3,72.5,29.91,ENE,67,0.0,3.5,48,0.00,CLR,,0.00,WeatherDisplay:10.37,2013-06-11 19:42:00,
2013-06-11 14:47:00,96.8,73.2,29.91,WSW,250,0.0,1.2,47,0.00,CLR,,0.00,WeatherDisplay:10.37,2013-06-11 19:47:00,
2013-06-11 14:52:00,97.3,73.7,29.91,NW,304,0.1,0.0,47,0.00,CLR,,0.00,WeatherDisplay:10.37,2013-06-11 19:52:00,
2013-06-11 14:57:00,97.3,72.4,29.91,WSW,246,1.1,2.3,45,0.00,CLR,,0.00,WeatherDisplay:10.37,2013-06-11 19:57:00,
2013-06-11 15:02:00,97.0,72.1,29.90,WNW,284,0.1,2.3,45,0.00,CLR,,0.00,WeatherDisplay:10.37,2013-06-11 20:02:00,
2013-06-11 15:07:00,96.1,72.6,29.90,East,89,0.8,2.3,47,0.00,CLR,,0.00,WeatherDisplay:10.37,2013-06-11 20:07:00,
2013-06-11 15:12:00,95.5,73.3,29.90,ENE,69,0.2,0.0,49,0.00,CLR,,0.00,WeatherDisplay:10.37,2013-06-11 20:12:00,
2013-06-11 15:17:00,95.2,73.0,29.90,SW,230,0.1,1.2,49,0.00,CLR,,0.00,WeatherDisplay:10.37,2013-06-11 20:17:00,
2013-06-11 15:22:00,95.5,72.7,29.90,NW,324,0.1,3.5,48,0.00,CLR,,0.00,WeatherDisplay:10.37,2013-06-11 20:22:00,
2013-06-11 15:27:00,95.9,73.1,29.91,SW,224,0.0,0.0,48,0.00,CLR,,0.00,WeatherDisplay:10.37,2013-06-11 20:27:00,
2013-06-11 15:32:00,96.5,73.6,29.90,NE,43,0.4,1.2,48,0.00,CLR,,0.00,WeatherDisplay:10.37,2013-06-11 20:32:00,
2013-06-11 15:37:00,96.9,73.3,29.90,NE,36,0.2,2.3,47,0.00,CLR,,0.00,WeatherDisplay:10.37,2013-06-11 20:37:00,
2013-06-11 15:42:00,97.2,73.6,29.90,NE,47,1.0,1.2,47,0.00,CLR,,0.00,WeatherDisplay:10.37,2013-06-11 20:42:00,
2013-06-11 15:47:00,97.8,73.5,29.90,SW,231,0.8,2.0,46,0.00,CLR,,0.00,WeatherDisplay:10.37,2013-06-11 20:47:00,
2013-06-11 15:52:00,97.8,73.5,29.90,ENE,61,0.1,3.5,46,0.00,CLR,,0.00,WeatherDisplay:10.37,2013-06-11 20:52:00,
2013-06-11 15:57:00,96.8,72.6,29.90,ENE,63,0.7,1.2,46,0.00,CLR,,0.00,WeatherDisplay:10.37,2013-06-11 20:57:00,
2013-06-11 16:02:00,96.0,72.5,29.90,NE,53,0.0,2.3,47,0.00,CLR,,0.00,WeatherDisplay:10.37,2013-06-11 21:02:00,
2013-06-11 16:07:00,95.6,72.8,29.90,WNW,297,0.1,1.2,48,0.00,CLR,,0.00,WeatherDisplay:10.37,2013-06-11 21:07:00,
2013-06-11 16:12:00,94.8,72.0,29.92,SSE,165,4.0,4.6,48,0.00,CLR,,0.00,WeatherDisplay:10.37,2013-06-11 21:12:00,
2013-06-11 16:17:00,91.8,71.1,29.93,SW,215,2.9,5.8,51,0.00,CLR,,0.00,WeatherDisplay:10.37,2013-06-11 21:17:00,
2013-06-11 16:22:00,89.0,71.3,29.94,SW,217,2.0,5.0,56,0.00,CLR,,0.00,WeatherDisplay:10.37,2013-06-11 21:22:00,
2013-06-11 16:27:00,86.5,70.0,29.95,SW,234,2.2,3.5,58,0.00,CLR,,0.00,WeatherDisplay:10.37,2013-06-11 21:27:00,
2013-06-11 16:32:00,83.9,67.5,29.94,West,264,1.0,5.8,58,0.00,CLR,,0.00,WeatherDisplay:10.37,2013-06-11 21:32:00,
2013-06-11 16:37:00,82.4,66.6,29.93,West,277,1.9,4.6,59,0.00,CLR,,0.00,WeatherDisplay:10.37,2013-06-11 21:37:00,
2013-06-11 16:42:00,81.3,65.6,29.93,West,267,2.1,3.5,59,0.00,CLR,,0.00,WeatherDisplay:10.37,2013-06-11 21:42:00,
2013-06-11 16:47:00,80.4,65.2,29.92,SW,219,1.2,4.6,60,0.00,CLR,,0.00,WeatherDisplay:10.37,2013-06-11 21:47:00,
2013-06-11 16:52:00,79.9,65.2,29.92,WSW,238,0.1,2.3,61,0.00,CLR,,0.00,WeatherDisplay:10.37,2013-06-11 21:52:00,
2013-06-11 16:57:00,79.5,65.3,29.91,NW,319,1.1,3.5,62,0.00,CLR,,0.00,WeatherDisplay:10.37,2013-06-11 21:57:00,
2013-06-11 17:02:00,79.1,65.9,29.91,West,269,0.0,0.0,64,0.00,CLR,,0.00,WeatherDisplay:10.37,2013-06-11 22:02:00,
2013-06-11 17:07:00,78.9,65.7,29.91,South,188,0.0,2.3,64,0.00,CLR,,0.00,WeatherDisplay:10.37,2013-06-11 22:07:00,
2013-06-11 17:12:00,78.8,66.0,29.92,SSW,196,0.4,2.3,65,0.00,CLR,,0.00,WeatherDisplay:10.37,2013-06-11 22:12:00,
2013-06-11 17:17:00,78.7,66.4,29.92,SSE,167,0.0,0.0,66,0.00,CLR,,0.00,WeatherDisplay:10.37,2013-06-11 22:17:00,
2013-06-11 17:22:00,78.5,66.6,29.92,SSW,196,0.0,0.0,67,0.00,CLR,,0.00,WeatherDisplay:10.37,2013-06-11 22:22:00,
2013-06-11 17:27:00,78.3,66.9,29.92,West,268,0.0,0.0,68,0.00,CLR,,0.00,WeatherDisplay:10.37,2013-06-11 22:27:00,
2013-06-11 17:32:00,78.2,67.2,29.92,WSW,248,0.6,2.3,69,0.00,CLR,,0.00,WeatherDisplay:10.37,2013-06-11 22:32:00,
2013-06-11 17:37:00,77.9,67.3,29.92,West,276,0.0,0.0,70,0.00,CLR,,0.00,WeatherDisplay:10.37,2013-06-11 22:37:00,
2013-06-11 17:42:00,77.7,68.0,29.92,WSW,246,0.0,0.0,72,0.00,CLR,,0.00,WeatherDisplay:10.37,2013-06-11 22:42:00,
2013-06-11 17:47:00,77.6,68.7,29.92,WSW,250,0.1,1.0,74,0.00,CLR,,0.00,WeatherDisplay:10.37,2013-06-11 22:47:00,
2013-06-11 17:53:00,77.5,68.9,29.91,WSW,251,0.0,0.0,75,0.00,CLR,,0.00,WeatherDisplay:10.37,2013-06-11 22:53:00,
2013-06-11 17:58:00,77.4,69.6,29.91,WSW,251,0.0,0.0,77,0.00,CLR,,0.00,WeatherDisplay:10.37,2013-06-11 22:58:00,
2013-06-11 18:03:00,77.3,69.9,29.91,WSW,251,0.0,0.0,78,0.00,CLR,,0.00,WeatherDisplay:10.37,2013-06-11 23:03:00,
2013-06-11 18:08:00,77.3,70.3,29.91,WSW,251,0.0,0.0,79,0.00,CLR,,0.00,WeatherDisplay:10.37,2013-06-11 23:08:00,
2013-06-11 18:13:00,77.1,70.5,29.91,WSW,251,0.0,0.0,80,0.00,CLR,,0.00,WeatherDisplay:10.37,2013-06-11 23:13:00,
2013-06-11 18:18:00,76.6,70.3,29.91,WSW,251,0.0,0.0,81,0.00,CLR,,0.00,WeatherDisplay:10.37,2013-06-11 23:18:00,
2013-06-11 18:23:00,76.3,70.0,29.91,WSW,252,0.0,0.0,81,0.01,RA,,0.01,WeatherDisplay:10.37,2013-06-11 23:23:00,
2013-06-11 18:28:00,75.9,69.6,29.91,WSW,252,0.0,0.0,81,0.01,RA,,0.01,WeatherDisplay:10.37,2013-06-11 23:28:00,
2013-06-11 18:33:00,75.7,69.8,29.90,WSW,252,0.0,0.0,82,0.01,CLR,,0.01,WeatherDisplay:10.37,2013-06-11 23:33:00,
2013-06-11 18:38:00,75.6,69.7,29.90,WSW,252,0.0,0.0,82,0.01,CLR,,0.01,WeatherDisplay:10.37,2013-06-11 23:38:00,
2013-06-11 18:43:00,75.5,70.0,29.90,WSW,252,0.0,0.0,83,0.01,CLR,,0.01,WeatherDisplay:10.37,2013-06-11 23:43:00,
2013-06-11 18:48:00,75.4,69.9,29.90,WSW,252,0.0,0.0,83,0.01,CLR,,0.01,WeatherDisplay:10.37,2013-06-11 23:48:00,
2013-06-11 18:53:00,75.4,70.2,29.90,WSW,252,0.0,0.0,84,0.01,CLR,,0.01,WeatherDisplay:10.37,2013-06-11 23:53:00,
2013-06-11 18:58:00,75.5,70.3,29.90,WSW,252,0.0,0.0,84,0.01,CLR,,0.01,WeatherDisplay:10.37,2013-06-11 23:58:00,
2013-06-11 19:03:00,75.5,70.3,29.90,WSW,252,0.0,0.0,84,0.01,CLR,,0.01,WeatherDisplay:10.37,2013-06-12 00:03:00,
2013-06-11 19:08:00,75.5,70.3,29.90,WSW,252,0.0,0.0,84,0.01,CLR,,0.01,WeatherDisplay:10.37,2013-06-12 00:08:00,
2013-06-11 19:13:00,75.6,70.4,29.90,WSW,252,0.0,0.0,84,0.01,CLR,,0.01,WeatherDisplay:10.37,2013-06-12 00:13:00,
2013-06-11 19:18:00,75.6,70.4,29.90,WSW,252,0.0,0.0,84,0.01,CLR,,0.01,WeatherDisplay:10.37,2013-06-12 00:18:00,
2013-06-11 19:23:00,75.6,70.1,29.90,WSW,252,0.0,0.0,83,0.00,CLR,,0.01,WeatherDisplay:10.37,2013-06-12 00:23:00,
2013-06-11 19:28:00,75.7,70.5,29.90,WSW,252,0.0,0.0,84,0.00,CLR,,0.01,WeatherDisplay:10.37,2013-06-12 00:28:00,
2013-06-11 19:33:00,75.8,70.3,29.90,WSW,252,0.0,0.0,83,0.00,CLR,,0.01,WeatherDisplay:10.37,2013-06-12 00:33:00,
2013-06-11 19:38:00,75.9,70.4,29.90,WSW,252,0.0,0.0,83,0.00,CLR,,0.01,WeatherDisplay:10.37,2013-06-12 00:38:00,
2013-06-11 19:43:00,76.0,70.5,29.90,WSW,252,0.0,0.0,83,0.00,CLR,,0.01,WeatherDisplay:10.37,2013-06-12 00:43:00,
2013-06-11 19:48:00,76.0,70.5,29.90,WSW,252,0.0,0.0,83,0.00,CLR,,0.01,WeatherDisplay:10.37,2013-06-12 00:48:00,
2013-06-11 19:53:00,76.1,70.6,29.90,WSW,252,0.0,0.0,83,0.00,CLR,,0.01,WeatherDisplay:10.37,2013-06-12 00:53:00,
2013-06-11 19:58:00,76.1,70.2,29.90,WSW,252,0.0,0.0,82,0.00,CLR,,0.01,WeatherDisplay:10.37,2013-06-12 00:58:00,
2013-06-11 20:03:00,76.1,70.2,29.90,WSW,252,0.0,0.0,82,0.00,CLR,,0.01,WeatherDisplay:10.37,2013-06-12 01:03:00,
2013-06-11 20:08:00,76.2,70.7,29.90,WSW,252,0.0,0.0,83,0.00,CLR,,0.01,WeatherDisplay:10.37,2013-06-12 01:08:00,
2013-06-11 20:13:00,76.2,70.7,29.91,WSW,252,0.0,0.0,83,0.00,CLR,,0.01,WeatherDisplay:10.37,2013-06-12 01:13:00,
2013-06-11 20:18:00,76.1,70.6,29.90,WSW,252,0.0,0.0,83,0.00,CLR,,0.01,WeatherDisplay:10.37,2013-06-12 01:18:00,
2013-06-11 20:23:00,76.1,70.6,29.91,WSW,252,0.0,0.0,83,0.00,CLR,,0.01,WeatherDisplay:10.37,2013-06-12 01:23:00,
2013-06-11 20:28:00,76.0,70.5,29.91,WSW,252,0.0,0.0,83,0.00,CLR,,0.01,WeatherDisplay:10.37,2013-06-12 01:28:00,
2013-06-11 20:33:00,76.0,70.5,29.91,WSW,252,0.0,0.0,83,0.00,CLR,,0.01,WeatherDisplay:10.37,2013-06-12 01:33:00,
2013-06-11 20:38:00,75.9,70.4,29.91,WSW,252,0.0,0.0,83,0.00,CLR,,0.01,WeatherDisplay:10.37,2013-06-12 01:38:00,
2013-06-11 20:43:00,75.8,70.3,29.91,WSW,252,0.0,0.0,83,0.00,CLR,,0.01,WeatherDisplay:10.37,2013-06-12 01:43:00,
2013-06-11 20:48:00,75.7,70.2,29.91,WSW,252,0.0,0.0,83,0.00,CLR,,0.01,WeatherDisplay:10.37,2013-06-12 01:48:00,
2013-06-11 20:53:00,75.5,70.0,29.91,WSW,252,0.0,0.0,83,0.00,CLR,,0.01,WeatherDisplay:10.37,2013-06-12 01:53:00,
2013-06-11 20:58:00,75.4,69.9,29.91,WSW,252,0.0,0.0,83,0.00,CLR,,0.01,WeatherDisplay:10.37,2013-06-12 01:58:00,
2013-06-11 21:03:00,75.3,69.8,29.91,WSW,252,0.0,0.0,83,0.00,CLR,,0.01,WeatherDisplay:10.37,2013-06-12 02:03:00,
2013-06-11 21:08:00,75.2,69.7,29.91,WSW,252,0.0,0.0,83,0.00,CLR,,0.01,WeatherDisplay:10.37,2013-06-12 02:08:00,
2013-06-11 21:13:00,75.0,69.5,29.91,WSW,252,0.0,0.0,83,0.00,CLR,,0.01,WeatherDisplay:10.37,2013-06-12 02:13:00,
2013-06-11 21:18:00,74.9,69.7,29.91,WSW,252,0.0,0.0,84,0.00,CLR,,0.01,WeatherDisplay:10.37,2013-06-12 02:18:00,
2013-06-11 21:23:00,74.8,69.6,29.91,WSW,252,0.0,0.0,84,0.00,CLR,,0.01,WeatherDisplay:10.37,2013-06-12 02:23:00,
2013-06-11 21:28:00,74.7,69.5,29.91,WSW,252,0.0,0.0,84,0.00,CLR,,0.01,WeatherDisplay:10.37,2013-06-12 02:28:00,
2013-06-11 21:33:00,74.5,69.3,29.91,WSW,252,0.0,0.0,84,0.00,CLR,,0.01,WeatherDisplay:10.37,2013-06-12 02:33:00,
2013-06-11 21:38:00,74.4,69.2,29.91,WSW,252,0.0,0.0,84,0.00,CLR,,0.01,WeatherDisplay:10.37,2013-06-12 02:38:00,
2013-06-11 21:43:00,74.3,69.1,29.91,WSW,252,0.0,0.0,84,0.00,CLR,,0.01,WeatherDisplay:10.37,2013-06-12 02:43:00,
2013-06-11 21:48:00,74.2,69.4,29.92,WSW,252,0.0,0.0,85,0.00,CLR,,0.01,WeatherDisplay:10.37,2013-06-12 02:48:00,
2013-06-11 21:53:00,74.0,69.2,29.92,WSW,252,0.0,0.0,85,0.00,CLR,,0.01,WeatherDisplay:10.37,2013-06-12 02:53:00,
2013-06-11 21:58:00,73.8,69.0,29.92,WSW,252,0.0,0.0,85,0.00,CLR,,0.01,WeatherDisplay:10.37,2013-06-12 02:58:00,
2013-06-11 22:03:00,73.7,68.9,29.92,WSW,252,0.0,0.0,85,0.00,CLR,,0.01,WeatherDisplay:10.37,2013-06-12 03:03:00,
2013-06-11 22:08:00,73.6,68.8,29.92,WSW,252,0.0,0.0,85,0.00,CLR,,0.01,WeatherDisplay:10.37,2013-06-12 03:08:00,
2013-06-11 22:13:00,73.5,69.1,29.92,WSW,252,0.0,0.0,86,0.00,CLR,,0.01,WeatherDisplay:10.37,2013-06-12 03:13:00,
2013-06-11 22:18:00,73.3,68.9,29.93,WSW,252,0.0,0.0,86,0.00,CLR,,0.01,WeatherDisplay:10.37,2013-06-12 03:18:00,
2013-06-11 22:23:00,73.2,68.8,29.93,WSW,252,0.0,0.0,86,0.00,CLR,,0.01,WeatherDisplay:10.37,2013-06-12 03:23:00,
2013-06-11 22:28:00,73.1,68.7,29.93,WSW,252,0.0,0.0,86,0.00,CLR,,0.01,WeatherDisplay:10.37,2013-06-12 03:28:00,
2013-06-11 22:33:00,73.0,68.9,29.93,WSW,252,0.0,0.0,87,0.00,CLR,,0.01,WeatherDisplay:10.37,2013-06-12 03:33:00,
2013-06-11 22:38:00,72.9,68.8,29.94,WSW,252,0.0,0.0,87,0.00,CLR,,0.01,WeatherDisplay:10.37,2013-06-12 03:38:00,
2013-06-11 22:43:00,72.8,69.0,29.94,WSW,252,0.0,0.0,88,0.00,CLR,,0.01,WeatherDisplay:10.37,2013-06-12 03:43:00,
2013-06-11 22:48:00,72.6,68.8,29.94,WSW,252,0.0,0.0,88,0.00,CLR,,0.01,WeatherDisplay:10.37,2013-06-12 03:48:00,
2013-06-11 22:53:00,72.5,68.7,29.94,WSW,252,0.0,0.0,88,0.00,CLR,,0.01,WeatherDisplay:10.37,2013-06-12 03:53:00,
2013-06-11 22:58:00,72.4,68.6,29.94,WSW,252,0.0,0.0,88,0.00,CLR,,0.01,WeatherDisplay:10.37,2013-06-12 03:58:00,
2013-06-11 23:01:00,72.4,68.6,29.94,WSW,252,0.0,0.0,88,0.00,CLR,,0.01,WeatherDisplay:10.37,2013-06-12 04:01:00,
2013-06-11 23:02:00,72.3,68.5,29.94,WSW,252,0.0,0.0,88,0.00,CLR,,0.01,WeatherDisplay:10.37,2013-06-12 04:02:00,
2013-06-11 23:07:00,72.2,68.4,29.95,WSW,252,0.0,0.0,88,0.00,CLR,,0.01,WeatherDisplay:10.37,2013-06-12 04:07:00,
2013-06-11 23:12:00,72.1,68.3,29.94,WSW,252,0.0,0.0,88,0.00,CLR,,0.01,WeatherDisplay:10.37,2013-06-12 04:12:00,
2013-06-11 23:17:00,72.0,68.2,29.95,WSW,252,0.0,0.0,88,0.00,CLR,,0.01,WeatherDisplay:10.37,2013-06-12 04:17:00,
2013-06-11 23:22:00,71.9,68.2,29.94,WSW,252,0.0,0.0,88,0.00,CLR,,0.01,WeatherDisplay:10.37,2013-06-12 04:22:00,
2013-06-11 23:27:00,71.9,68.5,29.95,WSW,252,0.0,0.0,89,0.00,CLR,,0.01,WeatherDisplay:10.37,2013-06-12 04:27:00,
2013-06-11 23:32:00,71.8,68.4,29.95,WSW,252,0.0,0.0,89,0.00,CLR,,0.01,WeatherDisplay:10.37,2013-06-12 04:32:00,
2013-06-11 23:37:00,71.7,68.3,29.95,WSW,252,0.0,0.0,89,0.00,CLR,,0.01,WeatherDisplay:10.37,2013-06-12 04:37:00,
2013-06-11 23:42:00,71.6,68.2,29.95,WSW,252,0.0,0.0,89,0.00,CLR,,0.01,WeatherDisplay:10.37,2013-06-12 04:42:00,
2013-06-11 23:47:00,71.5,68.1,29.95,WSW,252,0.0,0.0,89,0.00,CLR,,0.01,WeatherDisplay:10.37,2013-06-12 04:47:00,
2013-06-11 23:52:00,71.4,68.0,29.95,WSW,252,0.0,0.0,89,0.00,CLR,,0.01,WeatherDisplay:10.37,2013-06-12 04:52:00,
2013-06-11 23:57:00,71.3,67.9,29.95,WSW,252,0.0,0.0,89,0.00,CLR,,0.01,WeatherDisplay:10.37,2013-06-12 04:57:00,